This is the latest recevied weather packets stored in our database for station/object K6OUA-11. If no packets are shown the sender has not sent any weather packets the latest 1 day(s).
| Time | Temp. | Humidity | Pressure | Rain* | Wind** | Luminosity | Snow |
|---|---|---|---|---|---|---|---|
| 1778034719 | 16.11° C | 72% | - | 0 mm | 0 m/s | - | - |
| 1778034597 | 16.11° C | 72% | - | 0 mm | 0 m/s | - | - |
| 1778034475 | 16.11° C | 73% | - | 0 mm | 0 m/s | - | - |
| 1778034353 | 16.11° C | 72% | - | 0 mm | 0 m/s | - | - |
| 1778034232 | 16.11° C | 73% | - | 0 mm | 0 m/s | - | - |
| 1778034110 | 16.11° C | 73% | - | 0 mm | 0.45 m/s, 279° | - | - |
| 1778033988 | 16.11° C | 72% | - | 0 mm | 1.79 m/s, 270° | - | - |
| 1778033866 | 16.11° C | 72% | - | 0 mm | 0.89 m/s, 278° | - | - |
| 1778033744 | 16.11° C | 72% | - | 0 mm | 0.89 m/s, 279° | - | - |
| 1778033622 | 16.11° C | 71% | - | 0 mm | 0 m/s | - | - |
| 1778033500 | 16.11° C | 72% | - | 0 mm | 0.45 m/s, 274° | - | - |
| 1778033378 | 16.11° C | 72% | - | 0 mm | 0.89 m/s, 293° | - | - |
| 1778033257 | 16.11° C | 72% | - | 0 mm | 1.79 m/s, 284° | - | - |
| 1778033135 | 16.11° C | 72% | - | 0 mm | 0.45 m/s, 279° | - | - |
| 1778033013 | 16.11° C | 71% | - | 0 mm | 0 m/s | - | - |
| 1778032891 | 16.11° C | 72% | - | 0 mm | 1.34 m/s, 288° | - | - |
| 1778032769 | 16.11° C | 71% | - | 0 mm | 1.34 m/s, 293° | - | - |
| 1778032647 | 16.11° C | 71% | - | 0 mm | 1.34 m/s, 288° | - | - |
| 1778032525 | 16.11° C | 72% | - | 0 mm | 1.34 m/s, 284° | - | - |
| 1778032403 | 16.11° C | 72% | - | 0 mm | 1.34 m/s, 271° | - | - |
| 1778032281 | 16.11° C | 72% | - | 0 mm | 0 m/s | - | - |
| 1778032159 | 16.11° C | 72% | - | 0 mm | 0 m/s | - | - |
| 1778032036 | 16.67° C | 72% | - | 0 mm | 0.89 m/s, 258° | - | - |
| 1778031794 | 16.67° C | 71% | - | 0 mm | 1.34 m/s, 293° | - | - |
| 1778031672 | 16.67° C | 71% | - | 0 mm | 0.45 m/s, 300° | - | - |
* Rain latest 24 hours (hover to see other rain measurements)
** Current wind speed in m/s (hover to see current wind gust speed)